Torna al catalogo

STARLINK-34494

AttivoComunicazioniVLEO
NORAD 64611·PAYLOAD·🇺🇸 United States

Lanciato Jun 25, 2025 da Cape Canaveral Space Force Station

Loading…

Prossimi Passaggi (prossime 24 ore)

TLE

AggiornatoSource: CelesTrak SupGP

Epoca: Sep 14, 2026, 22:51 UTC

1 64611C 25137T   26257.95256944 -.00050103  00000+0 -14798-2 0  2570
2 64611  53.1575 173.3589 0001299  85.2953 177.8405 15.34425797    15

Traccia STARLINK-34494 in tempo reale con AllMySat

Download on the App Store